Theta_e
355 356 356 354 355 356 357 356 356 358 357 354 354 354 349 343 342 341 339 343 344 352 356 354 357 360 359 361 361 361 365 364 371 372 372 370 375 364 359 361 364 367 370 372 373 373 371 369 366 364 364 362 361 359 357 357 358 357 357 357 357 357 355 352 350 349 348 347 344 344 344 344 344 343
356 355 355 355 354 356 357 356 356 357 358 357 354 353 354 354 345 345 342 342 347 350 357 360 358 363 364 359 360 357 361 365 366 367 371 370 371 362 358 360 361 362 364 366 367 367 367 367 365 364 363 361 359 358 356 357 358 357 356 357 357 356 353 350 347 346 345 344 343 343 343 343 343 343
355 355 354 355 354 355 355 355 355 356 357 358 357 357 356 354 355 350 347 344 347 353 352 353 361 362 367 363 359 357 360 364 366 367 370 371 366 361 366 360 360 360 360 360 362 365 367 365 365 363 361 359 358 357 356 356 357 357 357 357 356 354 350 346 345 344 344 343 343 343 343 343 342 342
355 356 356 356 356 356 356 356 356 357 359 359 359 358 358 360 357 354 351 347 348 351 352 355 361 363 364 366 358 359 363 371 364 372 370 377 365 375 377 360 360 359 357 356 357 359 363 364 362 361 360 358 357 356 356 357 357 357 357 355 353 351 346 344 343 342 342 342 342 342 342 342 341 341
354 356 357 358 359 360 359 356 357 358 358 356 359 362 362 355 355 354 352 345 349 353 355 358 360 360 364 362 363 360 363 370 373 367 375 378 374 373 373 373 356 356 355 354 353 353 356 359 360 360 358 357 357 356 356 357 357 356 355 353 351 345 342 342 341 342 342 342 341 342 341 341 340 340
355 355 356 355 355 360 359 357 357 355 356 359 359 360 357 353 353 359 351 350 353 348 353 356 360 359 364 361 364 361 359 367 374 369 374 377 376 373 373 371 369 352 353 352 351 350 351 353 356 357 357 357 356 355 356 356 356 355 351 348 342 339 340 340 341 341 341 340 340 340 340 340 340 339
355 354 355 354 355 357 356 356 357 358 358 360 359 358 360 357 356 360 357 352 353 349 348 356 358 360 365 362 359 360 363 367 373 371 372 370 372 373 372 370 369 350 351 349 349 348 348 349 350 352 353 354 354 354 354 352 349 344 340 338 336 337 339 339 339 339 339 338 338 337 337 337 338 338
350 351 353 354 355 357 357 355 355 359 358 357 359 359 360 360 361 361 359 356 353 353 349 351 355 358 359 364 365 364 363 363 368 369 371 369 370 370 369 368 369 356 349 349 348 347 346 346 346 346 347 348 350 348 344 340 336 334 334 334 335 336 336 334 334 335 336 335 335 335 334 335 336 337
350 350 350 350 354 355 355 357 359 356 356 357 357 358 359 358 359 359 358 357 356 351 349 348 352 358 360 365 363 363 361 363 366 371 369 367 368 367 366 366 366 353 349 348 347 346 345 345 343 342 342 342 342 339 335 334 333 332 332 332 332 332 331 329 329 330 330 330 330 331 332 332 333 335
350 349 350 351 352 352 352 354 354 356 357 357 356 356 359 359 358 357 357 357 354 351 350 353 347 357 361 362 365 364 362 360 360 364 367 367 366 365 362 362 362 361 359 359 355 345 345 343 341 341 340 339 337 335 334 333 331 330 329 329 328 327 326 326 325 324 324 325 325 326 327 328 329 332
350 349 348 349 350 350 351 352 354 357 357 357 356 357 358 359 358 356 354 354 353 352 352 352 353 351 357 362 363 366 368 366 362 358 360 359 362 363 361 360 357 362 360 356 352 353 350 349 350 338 337 335 334 333 333 333 332 330 327 325 324 324 323 322 321 320 320 321 321 322 323 325 327 330
350 349 349 349 350 349 349 350 352 357 356 357 358 356 357 357 357 356 355 354 352 349 350 346 350 351 349 360 363 364 361 354 358 359 352 354 354 357 361 361 358 358 360 357 355 349 348 349 347 338 338 336 335 334 333 333 333 331 327 323 322 321 320 319 319 319 319 319 319 319 319 320 324 329
349 350 350 350 351 352 352 350 352 355 356 357 356 358 358 357 357 357 354 354 352 348 348 345 347 352 351 353 356 353 351 353 356 360 357 355 357 357 359 361 362 360 355 355 352 351 351 349 347 349 349 344 339 339 338 336 333 331 326 323 321 321 323 321 319 320 321 320 319 318 318 318 319 324
348 349 349 350 351 347 348 348 350 350 350 351 355 359 357 357 357 357 357 356 352 348 348 348 344 345 349 349 347 350 355 360 362 359 359 354 356 356 357 356 359 358 354 351 350 350 351 350 347 347 345 345 344 343 343 342 336 328 322 320 320 322 322 319 321 321 320 318 319 319 318 318 319 321
347 348 349 351 351 350 350 354 348 349 349 349 349 349 351 351 347 347 351 354 352 348 345 346 346 344 346 351 353 355 355 355 358 358 359 358 357 353 347 348 356 359 356 353 349 350 353 351 345 346 346 344 344 344 344 337 330 324 321 320 321 323 322 320 321 321 320 319 319 319 317 318 320 320
346 346 347 349 350 350 351 352 354 352 347 347 348 349 349 349 350 351 354 354 352 348 344 345 344 345 346 352 355 356 355 353 360 362 362 360 357 353 351 352 350 354 357 352 350 347 352 351 347 345 345 345 345 344 338 330 326 322 320 320 321 323 322 322 321 321 322 321 320 319 318 320 322 321
345 347 347 347 348 349 346 349 351 352 354 349 343 343 346 347 346 343 344 347 355 355 352 347 350 350 351 353 354 354 358 363 355 359 359 358 354 352 353 354 355 355 357 354 349 345 347 349 345 343 345 346 345 343 333 327 324 321 320 319 319 321 322 322 322 322 321 320 319 318 319 321 321 321
345 346 348 346 346 349 351 353 352 352 352 352 355 357 355 356 352 345 345 347 350 350 354 352 351 354 359 357 359 362 361 357 353 358 351 357 357 357 355 359 358 357 354 350 348 344 345 345 344 342 345 346 345 345 329 323 322 320 319 319 319 319 320 323 322 322 321 320 318 318 319 320 320 320
346 346 348 348 346 348 349 350 352 352 352 353 353 351 355 355 355 355 356 356 356 353 353 354 356 356 358 359 362 365 362 359 357 358 361 363 361 359 361 362 353 350 354 354 347 336 342 347 344 343 344 344 343 340 322 321 320 319 319 318 318 319 320 322 322 321 321 319 319 319 319 318 318 318
348 348 347 348 348 348 348 346 342 345 352 351 352 353 354 356 354 355 354 347 349 357 358 357 356 356 357 349 363 366 366 363 362 360 366 361 359 354 349 347 344 345 354 356 346 343 342 345 342 342 344 344 341 334 326 321 320 318 318 318 318 319 320 321 321 320 320 320 319 319 318 317 316 317
347 347 346 344 348 349 350 344 335 336 345 350 348 349 352 351 351 351 354 344 337 339 338 339 340 341 340 338 336 336 340 352 353 355 350 345 345 345 341 345 343 343 349 351 349 346 344 341 342 344 345 340 338 330 325 323 319 318 318 317 317 318 319 319 320 319 319 319 319 318 317 315 316 316
347 347 339 346 345 348 348 338 332 333 345 347 348 349 346 345 346 348 351 353 354 336 335 337 338 338 339 340 339 337 335 335 344 352 346 346 347 343 346 344 345 344 344 345 350 347 343 342 344 342 342 339 333 327 326 323 320 318 317 317 317 317 318 318 318 318 318 318 318 317 316 315 316 324
345 344 343 341 340 343 342 332 331 330 341 346 345 347 347 346 346 347 350 351 352 355 355 353 352 349 347 352 357 357 344 338 342 351 353 357 352 349 347 348 347 344 342 345 351 345 345 339 342 336 327 326 329 327 323 320 318 318 319 318 317 317 317 317 316 316 316 316 316 316 315 314 317 322
341 341 345 346 334 328 328 327 327 327 327 344 349 344 344 347 345 349 350 352 355 355 353 352 355 354 357 358 356 358 360 356 354 358 357 354 358 353 349 347 347 342 341 345 349 344 347 343 339 335 330 324 321 324 320 318 318 319 318 317 316 318 318 317 315 314 314 314 314 314 313 314 316 322
339 341 343 342 338 326 324 323 322 322 322 330 347 346 345 348 349 350 350 353 351 356 355 352 351 351 356 358 357 355 355 359 359 358 358 360 358 354 349 346 345 346 348 344 340 345 341 342 336 332 330 330 324 319 319 319 319 318 318 317 315 316 317 315 315 315 312 312 311 310 311 313 313 317
338 339 341 342 341 328 323 321 319 318 320 323 343 347 332 332 333 353 351 350 352 351 349 350 352 354 353 355 357 359 359 358 357 358 359 360 359 356 356 353 348 344 345 345 335 344 342 336 335 329 329 325 318 319 313 314 316 318 319 318 316 315 315 314 314 314 316 316 315 312 312 311 313 313
337 340 342 343 336 327 321 316 317 317 318 323 335 327 326 327 327 340 350 348 346 346 353 350 349 349 348 353 353 350 352 353 353 354 356 357 357 357 357 359 358 353 351 347 340 343 341 336 334 329 328 325 317 317 315 311 312 317 315 317 317 316 317 315 314 314 315 315 316 314 311 311 312 314
336 338 340 341 328 321 316 314 315 317 321 332 324 321 323 326 332 344 346 344 346 346 348 348 348 349 351 354 352 352 357 353 351 352 353 355 355 355 355 354 347 342 345 345 341 342 341 337 333 332 331 324 317 313 311 314 314 313 313 316 317 317 318 318 317 315 316 316 317 316 315 313 315 316
335 329 323 321 319 319 315 314 314 317 320 317 320 321 323 331 341 343 345 346 347 344 344 346 348 351 344 341 335 335 336 337 339 338 334 335 332 329 327 325 325 327 329 334 340 341 341 339 334 332 331 326 321 318 314 311 312 312 315 314 314 317 319 317 317 316 317 316 317 317 315 315 315 316
324 322 321 320 320 321 323 332 337 343 343 328 324 325 329 342 344 344 344 343 343 342 344 345 348 334 329 328 331 332 332 332 330 330 329 328 325 327 326 321 319 321 323 327 327 326 330 334 334 331 329 325 323 318 316 313 312 314 316 315 315 318 319 317 317 318 318 319 320 320 319 318 317 317
334 332 329 332 328 329 332 334 337 339 340 343 342 341 339 341 342 344 343 342 342 343 344 344 334 331 331 331 330 328 326 325 325 327 325 322 321 320 320 318 316 317 320 321 324 325 326 326 326 326 320 318 317 316 315 315 313 314 315 317 315 311 315 318 320 320 322 321 322 323 321 319 318 319
337 337 336 330 333 336 338 339 341 342 345 344 345 346 343 341 341 340 341 341 343 340 337 328 326 326 326 325 325 326 326 325 325 326 322 320 319 321 320 317 315 316 317 318 318 320 323 323 323 323 321 319 316 316 317 315 313 313 313 316 318 319 317 316 317 319 321 322 320 320 321 319 316 317
323 329 336 340 338 337 335 336 338 340 340 339 334 334 334 335 336 336 336 331 325 325 325 324 323 323 323 322 323 324 321 321 321 323 321 322 321 321 321 318 317 316 315 315 316 317 318 319 320 319 318 319 320 318 315 313 315 315 314 315 317 317 317 317 317 317 320 319 318 318 319 319 317 317
314 320 330 338 338 337 337 338 339 339 337 334 331 327 325 328 328 326 325 326 325 325 325 324 323 322 322 321 321 319 318 319 320 321 320 320 320 319 318 316 316 317 316 315 315 316 318 318 319 319 319 317 317 319 319 314 313 315 315 315 316 315 317 318 318 319 319 318 317 316 316 316 318 319
314 323 332 336 338 337 339 339 337 334 332 327 325 325 329 328 327 326 326 324 324 323 323 323 322 322 320 319 320 319 319 318 319 320 321 321 321 319 318 316 316 315 315 314 315 317 318 319 319 317 316 316 314 315 314 319 316 315 315 315 317 317 317 318 318 318 318 318 318 316 316 317 317 317
328 335 335 337 335 332 329 328 326 326 325 327 326 324 323 322 323 322 322 324 325 324 323 321 322 321 322 321 321 321 320 320 320 320 320 320 319 318 317 316 315 314 314 314 315 317 318 316 316 312 310 310 309 309 312 314 316 318 315 314 317 317 318 319 319 318 318 317 318 317 314 314 315 316
334 335 333 329 328 326 324 323 321 320 320 320 320 320 319 318 320 322 324 327 327 327 326 324 322 323 325 324 323 321 322 322 321 321 320 320 319 318 316 315 315 314 314 315 316 317 318 316 316 311 309 308 307 306 308 316 315 316 320 316 316 318 318 318 318 318 318 317 317 316 315 315 313 314
325 325 323 321 320 320 320 320 319 318 318 319 318 319 319 320 323 324 325 326 324 324 326 326 325 322 324 322 322 321 320 320 320 320 320 319 318 317 315 314 314 314 315 316 317 317 318 317 315 314 311 308 307 306 306 313 315 316 315 319 317 317 319 317 315 315 316 317 316 317 317 314 314 315
321 320 319 318 318 318 318 319 319 319 319 320 319 319 319 322 323 323 323 323 324 324 323 321 321 319 319 319 319 319 319 318 317 316 316 317 317 315 314 313 313 313 312 312 314 315 316 315 315 315 313 310 308 309 310 309 310 315 315 313 317 317 317 316 314 314 315 314 315 318 318 320 316 312
319 319 318 318 318 318 318 319 320 321 320 320 320 321 321 320 321 320 321 322 323 324 323 322 322 318 317 317 317 317 317 317 317 318 318 317 317 316 314 314 313 312 312 311 310 312 313 313 315 316 317 320 321 320 315 315 317 318 317 313 309 318 318 317 315 313 313 314 316 314 314 316 314 317
319 317 318 319 318 318 318 319 318 319 319 320 321 320 320 322 321 322 321 320 321 320 319 320 320 319 319 318 317 316 315 315 316 317 317 316 315 315 314 314 313 312 310 310 311 311 313 317 321 321 321 320 320 320 315 311 310 312 313 315 310 308 310 313 320 317 315 317 315 313 312 312 312 313
319 318 318 318 318 318 318 317 316 316 317 318 318 318 319 318 317 318 319 320 321 321 318 319 319 319 319 319 318 317 316 315 315 315 315 315 314 314 315 315 314 314 313 311 312 315 319 322 321 320 319 318 316 313 310 310 310 311 313 314 315 310 309 310 309 311 321 320 316 313 312 312 314 312
318 318 318 319 320 319 319 318 318 318 317 318 319 319 318 318 317 317 317 318 319 319 320 321 322 323 322 320 320 320 318 317 317 317 317 316 315 315 314 315 316 316 316 315 315 316 316 318 319 317 317 316 315 314 311 311 312 313 314 314 314 315 314 309 309 308 309 308 310 315 318 315 311 307
314 314 315 316 316 316 317 318 318 319 319 319 320 320 320 319 318 319 320 319 319 318 318 318 319 320 320 320 320 320 319 318 318 317 316 316 316 316 316 315 315 315 314 313 313 313 314 315 316 316 315 314 315 314 311 312 312 313 312 312 314 315 314 314 313 309 308 308 308 309 310 310 310 309
315 314 315 315 316 317 318 319 318 319 319 319 319 319 319 319 318 318 319 319 319 318 318 317 318 319 319 319 319 318 318 318 317 317 317 316 316 315 315 314 313 313 313 313 313 313 313 313 314 315 314 314 313 313 313 312 312 313 312 313 313 314 314 313 313 312 312 313 310 307 309 309 311 311
Wind_Speed
13 13 15 14 13 13 13 14 14 13 12 10 9 9 11 15 14 12 12 11 11 11 12 10 10 12 12 10 10 10 9 8 12 9 8 9 8 16 17 17 16 16 16 16 15 16 15 15 16 17 16 15 14 12 12 12 12 12 12 13 13 13 13 12 11 11 10 10 11 10 10 10 10 9
12 13 13 13 13 13 14 14 15 14 13 11 11 12 11 12 15 11 12 12 10 10 10 8 7 6 9 11 10 12 10 10 12 9 9 8 8 15 17 15 15 15 15 15 15 14 14 16 18 16 15 14 13 12 13 13 13 13 13 14 14 14 12 12 12 11 11 11 11 11 11 10 10 9
12 13 14 13 13 14 14 14 14 15 14 13 13 11 9 8 11 13 12 12 11 10 10 10 5 5 7 10 10 11 11 10 11 9 7 8 8 14 12 15 14 14 15 15 14 15 16 18 16 15 15 14 13 13 13 13 13 13 13 14 15 13 12 11 12 13 13 13 12 12 11 11 10 10
12 13 14 13 12 12 12 13 13 11 12 12 12 11 8 5 9 11 11 13 14 11 11 11 7 7 8 11 12 11 8 9 11 7 8 6 11 9 7 13 14 14 15 15 15 15 15 16 16 15 15 14 14 14 13 13 14 15 15 15 15 14 13 12 12 14 14 14 14 13 12 11 11 10
13 13 13 14 14 13 13 13 12 10 11 14 12 7 5 7 9 10 11 15 14 12 12 9 7 9 11 11 12 11 9 7 7 8 7 8 8 8 7 9 13 14 15 15 15 15 15 15 15 16 15 15 15 15 14 13 15 16 16 15 12 12 12 13 14 14 14 14 13 12 12 11 11 10
12 13 14 14 15 13 14 14 14 13 13 13 10 8 7 9 10 9 11 16 13 13 12 11 10 10 8 8 10 12 11 10 8 9 8 7 8 8 8 9 12 14 15 15 15 15 14 14 14 14 16 15 16 15 14 13 14 15 13 13 14 14 13 14 14 14 14 13 13 13 12 12 11 11
13 15 14 15 14 12 14 15 14 14 14 13 14 13 10 11 11 9 7 10 12 13 14 12 11 10 8 10 12 14 10 10 9 9 10 9 8 8 9 9 9 16 15 16 14 14 14 14 14 14 14 14 14 14 13 14 14 14 14 15 15 14 12 13 13 14 14 13 12 12 12 11 11 11
14 14 14 14 14 14 15 15 13 13 13 13 13 13 12 11 11 9 7 9 11 10 11 14 13 10 11 10 11 9 11 11 10 9 9 10 10 10 10 9 8 15 17 15 15 15 14 14 14 14 14 14 14 14 14 14 15 15 16 16 15 13 13 13 13 12 13 12 12 11 11 10 10 10
14 14 15 15 14 14 15 14 13 13 14 12 13 13 12 12 10 9 8 8 7 9 12 12 14 12 11 9 11 8 10 11 10 10 10 11 11 11 11 10 5 15 19 16 15 14 14 13 14 14 14 13 14 14 15 16 16 16 17 17 15 13 13 13 13 12 12 11 10 9 9 8 8 8
15 15 15 15 15 15 15 15 14 13 15 13 12 14 13 12 11 10 10 8 10 12 13 12 11 13 12 11 9 10 11 12 11 10 10 9 10 10 9 10 7 8 9 10 10 10 11 13 13 14 13 13 15 16 16 17 17 17 17 17 15 14 14 14 13 13 12 11 10 9 8 7 6 7
16 16 16 15 15 16 16 16 15 14 14 13 14 13 13 13 11 11 10 9 11 11 10 11 11 12 13 12 9 7 6 9 11 10 10 11 10 9 10 9 8 8 11 13 15 14 14 15 14 13 14 15 17 17 17 17 16 17 17 17 16 15 15 14 14 13 13 12 11 10 9 9 8 8
16 17 16 16 16 16 16 16 16 15 13 12 12 12 12 13 13 12 11 9 9 9 11 14 11 10 13 11 8 6 6 10 14 8 10 11 10 11 10 11 11 11 10 11 12 11 11 13 12 12 13 16 17 16 15 15 15 15 15 17 16 16 15 15 14 14 13 12 11 11 10 9 9 8
16 16 16 16 16 17 18 18 16 15 13 12 13 12 11 11 12 11 11 10 7 10 8 11 13 12 10 11 6 9 11 15 15 11 13 11 10 10 10 10 12 11 13 10 11 12 13 13 13 12 11 9 14 14 17 15 17 18 15 16 17 15 12 12 14 12 10 10 10 11 11 10 10 9
16 16 16 16 19 17 16 16 17 17 18 17 15 11 8 7 10 11 9 7 8 9 10 11 14 14 12 11 14 14 14 14 12 12 12 13 10 12 10 11 12 11 12 12 11 12 13 13 13 13 14 11 12 11 13 13 14 16 18 18 17 13 12 15 12 10 12 13 12 10 12 11 10 9
15 16 16 16 17 17 17 17 19 18 19 19 20 20 19 14 13 11 11 13 12 9 11 11 11 15 15 16 12 11 7 11 14 13 12 11 7 10 13 12 7 11 13 12 13 13 14 13 13 14 15 14 14 14 14 16 16 18 19 19 16 13 14 13 12 11 12 12 12 11 12 11 10 9
15 15 15 15 13 14 16 16 16 17 20 22 21 21 21 20 22 20 14 13 12 12 12 11 13 15 17 16 13 11 12 16 14 12 12 10 10 10 13 13 13 11 14 12 11 10 9 12 13 14 15 15 15 17 15 20 19 19 20 19 17 14 13 14 14 13 11 10 9 10 12 12 11 12
15 14 14 14 13 13 15 15 17 17 15 17 22 22 21 21 21 22 22 19 15 11 11 13 16 16 16 13 12 12 12 10 8 11 12 10 10 11 13 14 12 12 14 12 9 12 13 11 13 14 14 15 14 15 15 23 22 21 20 19 19 17 13 13 13 13 13 12 11 12 12 12 13 13
17 16 15 16 15 15 15 14 16 16 16 16 14 15 15 16 19 22 23 21 22 19 14 15 17 17 14 13 11 11 5 9 13 12 14 14 15 15 16 14 11 11 15 14 8 9 8 12 15 14 13 14 14 11 17 24 23 21 20 20 19 20 18 13 13 13 12 12 13 12 13 13 13 13
18 17 15 16 17 17 16 14 15 15 16 15 14 14 14 15 17 18 19 20 20 19 20 20 20 18 15 16 13 8 9 11 13 14 16 15 13 11 7 6 6 1 9 11 9 10 14 11 10 11 11 14 15 9 17 23 24 22 21 21 20 20 18 17 16 13 13 14 14 14 13 13 13 13
15 14 15 15 17 18 17 18 17 16 15 15 14 14 14 14 14 13 15 18 19 18 18 19 20 18 19 17 13 11 9 8 8 12 4 4 6 8 9 11 7 9 9 10 13 13 13 16 16 14 12 12 11 9 9 20 24 23 21 21 20 19 18 17 17 15 13 14 15 15 14 14 13 13
15 14 14 16 15 17 17 18 17 15 15 15 16 15 16 16 14 14 13 13 15 18 21 22 21 21 20 19 17 16 14 12 10 9 3 5 3 3 6 6 7 10 11 11 13 14 10 12 14 11 8 8 10 9 10 11 19 22 21 21 20 19 18 18 17 17 16 15 13 14 15 14 13 13
15 16 19 18 18 17 16 17 15 15 14 16 16 17 19 16 16 15 15 12 11 20 22 22 22 19 18 18 17 15 13 14 12 10 10 11 11 10 12 12 11 10 13 14 15 12 8 11 10 8 3 4 3 8 9 12 14 19 18 20 20 20 19 18 17 17 16 17 16 15 15 14 14 10
14 16 15 18 20 21 19 19 16 14 13 14 17 18 18 17 17 16 15 14 14 11 10 13 14 15 16 15 13 14 17 14 16 16 16 10 12 11 11 9 7 8 8 12 16 12 8 14 11 10 8 7 4 6 7 10 11 11 10 12 13 18 19 18 17 16 16 16 16 16 15 15 13 9
13 16 17 15 18 20 22 21 19 17 14 15 14 15 17 15 17 14 15 14 13 12 8 10 12 16 16 15 16 14 12 12 11 13 10 12 11 12 9 10 11 12 10 11 15 15 10 11 11 9 12 13 10 9 8 8 10 10 10 11 10 14 15 16 13 16 16 15 16 16 16 16 11 8
14 14 14 15 17 16 18 18 20 20 18 17 16 16 16 17 14 10 12 10 11 11 10 11 11 13 11 10 9 12 14 14 12 12 13 12 11 13 14 15 14 12 9 11 20 14 10 11 11 10 7 4 5 9 7 8 8 9 10 12 13 10 10 9 9 9 11 15 15 16 15 14 10 5
14 15 14 14 13 12 15 16 18 20 20 21 15 19 19 16 10 9 10 10 9 7 10 11 10 7 7 8 9 8 9 10 12 12 12 11 11 12 12 12 13 12 12 11 23 15 10 8 12 13 10 7 7 9 10 8 8 8 7 6 10 13 13 12 10 10 8 7 8 9 10 13 10 6
14 14 14 14 15 16 15 14 16 18 20 16 15 20 18 15 13 10 8 9 10 12 8 9 9 9 11 9 6 9 10 10 12 13 13 14 13 12 11 11 12 14 11 10 17 15 13 11 12 16 14 10 10 8 10 12 9 8 10 10 9 9 10 10 11 10 9 9 7 12 11 11 10 8
16 16 16 14 16 13 13 14 16 17 16 13 18 18 19 16 13 10 11 12 12 12 10 10 11 11 13 10 8 10 8 9 11 12 12 12 13 12 10 5 3 5 4 5 13 15 15 12 12 13 15 15 14 16 15 9 11 16 14 9 9 9 10 10 10 10 10 9 8 8 6 5 6 5
17 17 18 17 15 11 11 14 15 13 16 19 17 17 16 15 11 11 12 13 10 11 11 11 11 7 1 2 3 4 4 5 6 4 6 7 9 10 11 12 10 9 8 4 2 9 14 14 12 13 12 12 15 13 14 17 17 16 15 16 12 9 8 9 9 9 9 8 9 9 8 8 8 7
19 20 20 20 18 14 11 9 7 9 11 13 16 17 16 12 11 10 11 11 11 12 11 11 8 4 3 4 5 6 7 6 5 5 4 5 7 6 6 10 11 11 10 7 7 6 4 3 5 12 14 12 10 12 12 13 11 11 10 9 10 9 7 8 8 7 8 8 7 7 7 7 8 8
12 15 17 15 15 13 14 14 13 13 11 10 10 10 9 7 8 9 7 10 10 11 11 5 6 5 5 6 6 6 8 8 7 8 8 8 7 7 7 11 9 10 8 8 8 8 6 8 8 6 8 10 11 9 8 8 11 12 12 11 13 12 9 6 6 7 6 6 6 5 6 7 7 9
9 10 9 12 11 10 9 10 10 11 10 9 7 5 4 6 8 9 10 9 6 1 5 8 7 7 7 7 8 7 7 7 5 4 8 10 8 5 7 8 8 7 7 10 11 12 13 9 9 9 10 11 12 10 10 8 10 12 11 9 7 6 8 10 8 6 6 6 5 5 5 6 8 9
9 8 8 7 6 7 8 9 11 11 9 4 3 4 3 2 3 3 3 5 7 8 9 9 8 8 9 9 8 8 9 8 6 5 8 7 8 5 7 10 7 9 9 7 7 8 10 13 14 13 12 11 10 12 12 11 9 8 10 8 7 7 7 6 7 6 5 5 5 5 6 7 8 8
8 8 8 7 7 9 9 9 8 7 5 5 5 6 8 7 6 7 8 7 7 9 10 10 7 7 7 8 7 8 9 10 9 9 9 8 9 10 9 11 10 9 9 9 9 11 10 10 11 13 13 14 12 9 7 11 10 9 9 9 7 7 7 7 5 6 6 7 7 7 8 8 8 8
8 7 7 7 6 7 8 6 5 5 5 6 7 7 7 6 7 8 9 10 11 11 11 11 11 10 10 11 11 12 11 12 11 10 10 10 10 11 12 12 11 10 10 10 10 8 7 6 8 11 10 10 11 11 13 8 9 8 7 6 6 7 7 7 6 6 7 8 7 9 9 8 9 9
7 8 7 3 1 4 7 7 8 8 7 7 7 7 7 7 7 8 9 6 7 8 9 10 10 10 10 11 11 12 12 12 12 12 12 12 12 12 11 11 11 10 9 9 8 6 5 6 6 10 10 8 10 7 4 10 7 8 9 7 6 5 5 6 7 8 10 10 10 9 10 11 10 10
4 4 6 8 9 9 10 10 8 9 10 10 9 8 9 9 7 8 8 9 9 8 7 9 11 10 9 10 12 13 14 13 13 13 13 13 13 12 12 12 11 10 9 7 7 6 6 7 8 10 11 10 9 8 5 2 5 6 6 8 6 5 6 7 8 10 9 10 10 11 10 10 11 10
11 9 9 10 12 10 9 7 10 11 11 13 12 12 11 10 8 7 6 10 11 10 9 9 8 9 9 11 13 14 12 11 11 11 11 10 10 11 10 9 9 8 8 7 7 7 7 7 7 6 8 9 9 8 5 2 3 1 2 6 8 8 8 8 11 10 9 9 9 8 8 10 9 8
11 11 9 10 11 12 10 8 11 10 12 11 13 13 13 10 8 5 6 9 9 9 9 11 12 10 9 11 11 11 10 10 10 9 9 9 9 9 9 9 9 8 8 8 7 6 6 6 4 4 5 7 7 7 8 7 4 4 5 3 4 8 9 9 9 7 8 8 8 7 7 5 6 7
11 12 11 11 9 10 10 11 9 7 11 12 13 12 12 11 9 8 8 10 10 10 10 11 11 11 10 10 11 11 11 11 10 9 9 9 9 9 8 8 8 8 8 7 6 4 4 3 2 2 3 3 3 5 6 5 5 4 5 5 1 2 6 7 7 7 7 7 6 8 8 7 6 3
12 13 11 11 12 12 10 9 11 11 11 12 13 13 14 11 12 11 10 10 10 11 11 11 12 12 10 9 9 9 10 9 9 9 9 9 8 8 9 9 7 6 7 6 6 5 4 3 6 8 6 5 5 6 7 6 5 4 4 4 3 2 3 2 3 6 6 6 7 8 8 8 7 6
14 15 13 12 13 14 12 12 12 14 14 14 13 12 11 12 12 15 13 12 12 12 13 12 11 10 9 9 9 9 8 8 8 8 8 8 8 8 7 6 7 6 6 6 6 5 4 4 4 4 4 4 4 4 5 5 5 5 6 6 5 3 1 3 3 4 2 3 8 9 8 8 8 10
12 11 10 11 11 10 10 12 12 12 13 12 11 11 12 12 11 11 10 10 11 11 11 11 8 7 7 8 8 8 8 8 7 7 7 7 7 7 6 5 6 5 5 6 5 5 4 3 3 3 2 1 2 3 3 5 4 5 6 6 6 6 5 2 3 5 2 1 2 1 1 3 7 9
12 12 12 12 11 12 12 12 12 11 12 11 9 10 11 10 10 10 9 8 8 8 8 7 7 7 7 7 7 8 8 7 7 7 7 6 6 6 6 6 6 6 6 6 6 5 4 4 4 3 4 3 3 3 2 3 3 4 5 5 6 7 7 8 7 5 3 4 7 4 5 8 7 7
11 11 11 10 10 10 10 10 10 10 10 9 9 9 9 9 9 8 8 8 7 8 8 7 7 7 7 6 6 7 6 6 6 6 6 6 6 6 6 6 6 6 6 6 6 6 4 4 4 3 3 3 3 2 2 3 2 3 4 4 5 5 5 6 7 8 8 8 7 4 1 3 4 7
Wind_Direction
252 251 250 249 249 248 248 248 246 246 245 239 238 242 242 252 253 251 248 244 246 232 227 228 233 230 235 230 225 222 218 190 153 193 209 203 204 183 196 199 203 203 203 206 202 197 190 190 193 189 187 186 188 192 197 199 193 188 190 187 175 166 155 154 150 141 142 149 154 153 152 150 148 147
250 250 250 250 249 247 246 247 244 243 237 232 237 241 242 253 253 247 249 251 245 242 235 239 227 232 237 242 222 243 229 166 176 207 206 202 210 164 189 191 195 197 198 198 191 180 180 184 186 182 184 187 187 190 197 198 195 190 189 182 173 165 154 152 153 142 145 152 151 152 151 146 144 143
252 251 250 249 251 251 251 252 248 245 241 239 235 238 247 258 279 267 253 254 246 250 243 241 261 215 227 241 249 235 235 164 183 216 210 212 159 154 177 184 187 192 188 182 178 173 176 182 179 181 184 185 184 190 195 197 193 188 187 178 171 157 147 152 156 151 151 153 154 151 148 143 139 137
250 248 248 249 252 253 254 254 254 252 250 242 236 237 232 231 254 265 270 257 251 242 250 244 215 223 228 234 238 242 241 147 179 219 208 166 125 168 170 177 181 181 175 171 173 175 175 177 180 182 183 183 186 193 191 191 191 184 178 170 166 146 143 157 160 158 156 155 156 153 149 145 142 142
258 255 252 250 250 252 253 250 247 236 233 242 240 224 219 240 241 240 238 249 250 242 249 249 237 228 227 228 228 233 228 204 181 210 205 170 184 186 192 181 179 179 174 172 173 173 173 176 181 181 183 185 188 190 188 187 185 177 173 168 152 138 148 164 161 157 156 157 155 152 150 149 150 149
258 257 254 252 252 249 250 251 253 250 247 241 232 216 216 230 241 237 249 249 248 247 239 241 236 237 235 259 248 238 224 219 194 194 195 186 189 196 187 190 187 182 177 174 173 171 171 176 179 182 184 187 187 186 187 180 176 172 162 143 135 140 159 163 160 158 159 156 152 151 152 151 152 154
257 257 255 255 253 251 251 248 245 246 248 249 247 238 225 230 235 238 233 260 261 255 248 239 234 224 217 228 232 237 231 221 203 193 196 192 187 193 197 190 193 172 180 175 171 172 173 175 181 182 183 184 185 184 179 174 169 153 137 133 138 150 164 161 157 159 156 153 152 152 151 151 152 155
263 261 261 258 255 253 255 255 250 242 241 242 246 242 234 236 236 237 229 240 254 258 262 250 238 229 219 221 235 239 242 222 208 202 197 201 193 192 198 201 196 166 174 175 173 174 174 176 180 180 179 181 178 173 166 154 142 138 136 138 144 158 160 155 154 154 154 153 154 153 152 153 155 159
263 263 262 262 260 256 252 252 251 249 241 234 242 244 239 234 236 239 228 227 236 253 254 263 254 240 229 209 217 218 242 224 213 204 203 201 199 198 200 202 154 146 169 172 176 177 175 178 179 181 179 176 169 157 148 146 143 142 142 143 151 159 156 153 153 152 151 151 151 151 150 151 156 166
260 260 261 262 261 260 256 255 252 249 242 235 236 239 236 234 233 231 228 222 226 234 241 247 257 243 219 217 209 202 223 227 218 210 205 200 199 198 199 199 144 167 167 176 180 175 180 182 183 182 175 165 155 152 150 148 148 147 147 149 154 158 155 153 152 152 152 153 154 152 149 150 158 169
264 261 260 261 259 259 257 257 256 250 246 240 235 232 237 234 220 227 235 231 237 238 247 250 242 256 242 220 207 193 223 248 235 222 206 203 198 200 196 198 156 177 177 185 186 191 194 181 187 176 170 159 156 155 153 153 151 152 151 153 158 159 158 157 157 157 157 157 157 157 158 162 167 175
262 263 261 258 258 257 257 256 255 250 245 245 240 234 231 234 226 222 219 221 228 241 240 249 249 250 257 245 213 168 182 230 230 201 227 211 203 196 197 203 188 182 180 185 188 183 186 170 177 157 166 161 157 155 155 155 153 152 153 158 161 161 161 160 160 160 160 158 159 161 163 168 173 178
262 262 262 260 258 256 254 252 254 255 255 252 248 239 227 224 228 216 217 222 213 229 230 245 251 249 249 254 240 214 196 213 214 201 210 212 199 196 199 203 200 179 187 187 188 190 190 185 185 184 179 167 156 158 167 161 158 158 155 160 164 161 156 159 162 160 156 157 160 165 168 171 175 179
262 262 261 261 261 260 259 255 250 246 245 243 244 251 246 246 245 226 209 207 211 220 223 223 238 247 234 234 231 228 214 208 202 201 204 212 198 207 201 213 208 179 188 186 189 194 191 189 186 187 190 171 170 171 180 183 174 164 162 164 166 159 157 161 161 157 164 169 166 162 167 170 173 171
264 261 259 260 257 252 248 248 246 245 242 240 239 235 236 224 229 250 225 221 219 216 229 230 224 234 240 233 232 239 228 237 210 203 197 199 194 210 208 204 190 187 188 196 193 196 199 186 181 193 195 176 187 187 196 174 164 163 167 166 164 157 160 164 165 163 170 168 162 157 164 164 163 157
266 265 264 261 260 257 255 256 250 238 233 237 238 236 235 235 234 238 239 227 224 219 222 222 226 229 233 229 224 225 210 219 200 194 188 189 192 200 210 202 196 190 195 193 188 189 194 194 187 194 198 189 193 202 181 155 160 167 168 168 165 158 161 165 167 166 162 154 148 155 161 156 149 145
266 266 264 262 258 260 252 248 251 255 250 230 231 234 235 235 234 235 234 232 232 223 220 227 230 226 235 235 228 224 232 228 200 210 194 187 199 209 216 210 200 188 189 188 187 196 194 188 190 196 199 193 194 200 156 155 159 169 170 168 167 164 162 164 164 160 156 152 151 161 156 148 143 140
264 260 261 262 260 258 257 254 250 250 248 251 238 228 229 233 232 231 231 228 227 227 230 231 237 235 234 234 228 222 201 237 226 197 206 201 201 204 210 211 198 189 186 194 165 195 177 187 194 200 196 199 197 197 150 155 159 167 171 168 168 168 167 162 160 156 150 145 155 158 150 143 139 137
263 263 261 262 262 261 259 255 251 249 250 249 249 248 240 234 233 232 230 229 229 228 230 234 238 238 235 238 239 226 211 215 232 227 209 194 192 198 215 213 70 15 200 187 162 186 188 186 192 197 192 200 202 171 154 156 160 167 171 169 167 167 167 165 159 151 147 146 152 152 146 142 139 140
263 261 259 258 259 258 257 255 248 248 252 253 252 247 244 245 242 234 230 224 219 220 225 228 233 234 236 236 234 224 215 225 250 255 26 77 150 178 196 209 162 193 191 186 177 197 198 191 196 198 199 193 190 140 157 160 161 167 170 168 166 164 164 162 158 152 144 146 149 148 146 143 143 145
261 253 248 254 255 254 254 252 247 242 238 249 251 251 247 246 247 246 242 219 213 216 223 230 232 236 239 242 239 236 216 194 212 249 181 214 224 238 219 229 172 189 179 193 193 203 195 190 198 199 185 170 167 145 158 164 165 166 169 166 164 162 162 161 158 156 150 144 143 145 146 145 144 143
259 259 249 249 254 255 255 253 245 236 231 243 246 248 251 252 249 249 249 246 216 210 219 223 230 233 237 240 244 240 230 209 197 229 221 197 185 204 209 206 202 189 187 198 195 204 187 178 195 181 113 107 126 141 153 156 165 167 167 165 163 161 161 159 158 155 152 149 145 146 145 145 142 153
259 264 254 239 242 251 252 250 244 237 231 244 244 244 245 248 250 247 248 243 245 227 212 232 229 232 233 236 234 236 232 218 197 217 232 204 200 204 209 196 192 195 190 199 189 201 176 174 187 162 141 173 155 145 153 157 156 164 161 161 162 162 157 157 154 153 151 149 147 146 147 151 166 166
264 264 262 252 239 236 242 244 243 241 227 239 243 248 245 241 244 244 244 243 245 245 218 229 236 234 231 230 233 232 233 234 218 213 223 233 197 201 198 202 198 206 195 185 184 197 194 177 173 175 174 163 182 174 157 162 158 163 157 154 154 159 151 148 148 150 149 149 147 147 152 162 187 165
264 260 259 265 255 232 229 232 236 236 227 225 237 238 245 242 250 259 250 245 243 250 253 241 228 237 230 218 218 234 234 232 223 215 212 212 196 197 198 204 208 219 203 177 184 194 186 174 177 170 173 163 126 139 166 157 162 168 169 159 151 152 151 153 149 150 150 148 147 149 155 168 201 195
267 267 267 262 257 250 239 232 231 229 225 224 230 242 242 251 258 255 256 254 248 235 240 244 246 235 228 228 218 217 228 224 226 225 214 205 204 209 207 197 196 209 211 179 183 191 179 186 173 177 183 154 149 149 142 165 168 158 155 161 164 161 158 157 158 155 156 154 151 153 158 172 188 220
266 270 270 263 260 253 246 235 228 225 225 223 229 237 242 244 246 253 247 252 258 250 243 245 243 242 241 232 219 223 238 228 223 224 221 217 215 211 218 219 218 216 211 175 185 187 192 191 180 179 179 168 147 155 159 152 171 166 164 172 169 168 164 158 161 160 158 156 152 148 148 169 184 206
266 269 264 262 259 253 246 235 226 223 221 224 227 229 236 237 234 237 245 244 245 250 253 245 240 234 236 230 223 227 223 219 215 218 222 220 219 225 223 231 281 1 354 191 187 193 197 193 190 194 179 166 162 168 179 186 159 165 167 160 158 170 170 165 160 158 158 156 145 149 151 159 184 186
269 266 266 268 269 259 241 236 229 223 225 226 231 230 227 225 229 231 236 241 239 242 241 243 242 238 152 114 90 62 68 66 43 42 47 55 57 71 77 66 53 39 35 15 256 212 204 201 193 191 190 182 180 179 163 171 167 169 164 158 160 172 168 163 155 156 154 157 156 158 169 166 170 184
269 264 255 251 252 249 236 234 234 229 231 223 229 232 228 221 220 220 231 237 237 238 238 236 235 110 105 74 84 81 76 70 75 83 74 73 59 65 68 68 53 49 40 29 36 40 14 292 216 191 190 186 190 172 168 146 151 149 151 147 134 134 159 159 155 141 150 160 160 158 166 178 178 179
248 246 243 241 236 235 235 236 242 246 241 230 227 233 230 226 230 228 220 229 230 234 239 216 117 134 119 118 98 79 74 76 79 89 86 74 59 69 68 80 68 58 34 25 26 29 52 76 66 79 96 90 85 83 83 100 116 131 139 141 146 158 159 144 138 154 155 150 148 156 164 184 191 195
289 300 257 227 228 227 232 236 241 243 244 241 246 253 238 226 224 230 230 226 234 229 103 110 114 112 118 106 101 94 87 89 80 70 103 107 103 101 99 77 73 72 65 58 54 46 47 38 65 86 102 112 112 114 114 125 136 137 135 131 118 95 141 155 156 156 151 138 154 171 179 186 196 199
311 300 278 243 215 211 222 228 233 240 239 198 147 129 81 62 92 105 135 115 102 104 101 102 106 110 107 105 102 101 100 87 80 85 97 94 104 98 87 102 110 105 99 77 64 62 69 82 81 79 69 55 77 108 121 125 128 127 123 124 122 121 135 145 151 159 144 156 177 186 192 203 204 201
287 272 273 243 219 217 215 216 218 219 201 157 116 95 100 110 115 110 99 92 105 108 109 110 105 101 95 94 98 96 98 97 90 86 91 92 95 97 94 96 87 85 89 94 93 95 90 84 79 74 74 74 63 51 88 114 118 127 129 135 127 122 134 145 152 160 173 185 180 193 201 202 207 203
224 243 246 238 221 220 217 201 180 154 135 116 113 119 123 121 113 110 112 121 123 121 119 118 114 112 110 111 111 109 108 109 106 101 97 98 96 97 99 97 92 86 84 87 88 86 81 88 98 91 82 82 73 56 29 44 119 110 115 113 125 124 137 158 160 176 188 197 199 205 204 203 208 208
222 213 217 200 64 55 57 79 96 97 97 92 96 103 99 97 101 108 107 103 103 106 110 113 113 111 113 115 114 112 112 112 112 110 108 104 101 97 94 92 92 87 84 82 80 78 85 69 72 93 98 95 100 97 68 358 24 133 128 138 139 140 143 154 171 188 196 198 201 204 213 214 213 211
158 88 73 84 90 90 87 82 79 88 89 87 80 76 86 90 90 101 116 121 107 103 105 113 111 111 111 111 109 110 111 112 113 114 112 111 109 107 103 100 96 96 89 76 71 69 64 64 65 87 89 85 83 92 84 31 13 2 132 138 154 163 158 171 180 195 195 198 202 208 213 218 221 215
67 70 70 71 75 76 78 76 87 83 86 91 91 86 79 71 57 54 74 91 97 99 95 94 89 94 104 111 109 106 103 101 101 101 102 103 101 100 99 96 96 86 85 76 67 65 60 71 70 67 97 106 114 114 116 92 127 236 254 145 159 175 181 180 194 192 189 199 209 206 210 218 225 233
70 67 63 69 73 80 78 74 85 89 94 92 92 90 84 79 73 57 61 77 82 83 93 97 96 91 92 88 88 90 87 83 78 77 82 83 86 90 90 90 87 82 84 81 70 61 67 84 95 91 95 115 126 146 146 145 167 164 179 186 172 176 187 191 189 188 189 191 196 200 210 205 66 74
69 75 72 73 71 78 73 74 71 70 80 82 86 87 85 82 81 77 70 72 76 79 71 71 73 74 65 66 75 79 76 78 84 89 93 96 94 93 94 97 105 110 107 108 110 101 91 93 122 163 135 96 105 116 133 117 104 128 153 179 320 186 188 185 191 191 197 201 193 201 204 205 216 204
69 70 67 71 74 70 73 73 79 79 81 83 80 81 85 82 85 80 76 79 78 77 76 72 71 72 73 72 75 82 89 91 93 94 94 95 93 95 99 102 100 100 106 109 112 132 145 139 92 94 97 94 93 101 113 133 153 167 167 177 183 256 355 24 206 206 205 194 206 206 207 208 216 212
68 70 71 71 74 74 71 74 79 83 85 84 80 76 74 76 73 74 71 69 74 77 79 75 72 73 75 80 87 89 92 97 97 99 103 105 107 108 112 110 111 123 126 132 143 132 121 111 114 97 86 101 110 132 147 158 169 168 184 183 185 147 224 281 350 30 12 252 212 203 208 217 219 231
50 54 55 53 51 51 57 66 73 73 75 75 75 74 76 72 70 67 70 71 71 73 76 78 73 78 80 87 86 88 93 93 95 96 97 103 113 121 124 124 124 117 101 92 85 96 100 112 124 134 127 147 145 208 194 194 195 168 165 167 171 184 190 184 243 253 241 138 48 10 283 252 227 230
57 57 57 56 56 55 53 55 62 61 66 70 60 62 69 76 79 78 71 68 70 77 79 82 82 83 84 82 82 80 82 89 94 97 101 107 112 107 100 93 89 94 102 107 111 109 116 122 132 148 162 162 162 191 188 161 164 173 196 182 164 167 187 188 191 180 214 232 235 208 115 91 87 82
54 56 58 55 56 56 55 53 48 52 57 50 62 63 61 61 61 57 48 52 59 64 64 62 62 65 70 74 78 78 75 80 91 95 97 93 93 97 102 108 111 116 118 124 122 120 118 116 114 123 122 135 165 174 175 199 240 190 194 195 188 192 213 204 199 201 208 221 169 162 141 88 96 113